ROMMA est une association bénévole à but non lucratif. Votre soutien est indispensable : ADHERER à ROMMA ou FAIRE un DON

Voiron - (38, Isère)

Voironnais (300 m)   Longitude: 05° 35' E   Latitude: 45° 23' N Station partenaire n°109
 

Détail journalier du     <<     >>

Température Precipitation Humidité Pression Vent Dir Rafale Dir. rafale Ensol.
Heure (°C) (mm) (%) (hPa) (km/h) (km/h) (min)
01:00 4.807610252NNO5N0
02:00 4.4079102403N0
03:00 4.108010241N6ESE0
04:00 4.107710244N13NNO0
05:00 3.707910252N13N0
06:00 3.208210252SE5SE0
07:00 2.708310252SSE10SSE0
08:00 4.607910262SE6NO30
09:00 7.006810264E18E60
10:00 7.906310277NE24NE60
11:00 8.4062102710N29NE60
12:00 9.6057102715N32NNO60
13:00 10.8050102613N39NNO60
14:00 11.2048102615N31NNO60
15:00 12.1042102614N37NNO60
16:00 12.2041102611ENE27N30
17:00 12.2032102610N27N60
18:00 11.8033102715N42N0
19:00 11.2037102715N34NNO0
20:00 10.3041102814N31N0
21:00 9.7042102812N34NNO0
22:00 9.1044102910N26NNE0
23:00 8.304710299NNE26N0
minuit 6.405610292N13ENE0

Graphique du 19-03-2019

 

Serveur OMMA